This is the latest recevied weather packets stored in our database for station/object 9W2CHF-4. If no packets are shown the sender has not sent any weather packets the latest 10 day(s).
| Time | Temp. | Humidity | Pressure | Rain* | Wind** | Luminosity | Snow |
|---|---|---|---|---|---|---|---|
| 1777313296 | 33.33° C | 78% | 1009.2 hPa | - | - | - | - |
| 1777312396 | 33.33° C | 79% | 1009.6 hPa | - | - | - | - |
| 1777311496 | 33.33° C | 79% | 1009.9 hPa | - | - | - | - |
| 1777310596 | 33.33° C | 79% | 1010.1 hPa | - | - | - | - |
| 1777309696 | 33.33° C | 79% | 1010.3 hPa | - | - | - | - |
| 1777308796 | 33.33° C | 80% | 1010.5 hPa | - | - | - | - |
| 1777307896 | 33.33° C | 80% | 1010.7 hPa | - | - | - | - |
| 1777306996 | 33.33° C | 80% | 1010.9 hPa | - | - | - | - |
| 1777306096 | 33.33° C | 81% | 1011.1 hPa | - | - | - | - |
| 1777305196 | 32.78° C | 83% | 1011 hPa | - | - | - | - |
| 1777304296 | 33.33° C | 80% | 1010.9 hPa | - | - | - | - |
| 1777303396 | 33.33° C | 81% | 1011 hPa | - | - | - | - |
| 1777302496 | 33.33° C | 83% | 1011.1 hPa | - | - | - | - |
| 1777301596 | 33.89° C | 80% | 1011 hPa | - | - | - | - |
| 1777300696 | 33.89° C | 79% | 1011 hPa | - | - | - | - |
| 1777299795 | 33.33° C | 84% | 1011 hPa | - | - | - | - |
| 1777298895 | 33.33° C | 82% | 1010.8 hPa | - | - | - | - |
| 1777297995 | 33.33° C | 84% | 1010.9 hPa | - | - | - | - |
| 1777297095 | 33.33° C | 85% | 1010.8 hPa | - | - | - | - |
| 1777296195 | 33.33° C | 84% | 1010.7 hPa | - | - | - | - |
| 1777295295 | 32.78° C | 87% | 1010.6 hPa | - | - | - | - |
| 1777294395 | 32.78° C | 87% | 1010.3 hPa | - | - | - | - |
| 1777293495 | 32.78° C | 87% | 1010.2 hPa | - | - | - | - |
| 1777292595 | 33.33° C | 85% | 1010.1 hPa | - | - | - | - |
| 1777291695 | 33.33° C | 85% | 1009.8 hPa | - | - | - | - |
* Rain since midnight (hover to see other rain measurements)
** Current wind speed in m/s (hover to see current wind gust speed)